Location: Arbon
(43.0005°N, 0.7472°E)
Time: 08:20:40
(UTC+00:00)

A-11 Canister half - Pass Details

Date: 28 November 2020
Orbit: 1517 x 1683 km, 47.2° (Epoch: 22 January)

Event Time Altitude Azimuth Distance (km) Brightness Sun altitude
Rises 19:08:03 0° 295° (WNW) 4,937 12.6 -29.4°
Reaches altitude 10° 19:11:40 10° 286° (WNW) 3,949 12.0 -30.0°
Maximum altitude 19:20:07 31° 229° (SW) 2,619 10.5 -31.6°
Drops below altitude 10° 19:28:28 10° 172° (S) 3,891 11.0 -33.1°
Sets 19:32:02 0° 162° (SSE) 4,855 11.5 -33.7°
Enters shadow 19:32:08 - 162° (SSE) 4,883 11.5 -33.8°
